Weather History for Fort Lewis, WA

Change the Weather History Date:

Saturday, January 19, 2013

  Actual Average Record
Temperature  
Mean Temperature 32 °F -  
Max Temperature 35 °F 45 °F 64 °F (2005)
Min Temperature 30 °F 34 °F 24 °F (2000)
Degree Days  
Heating Degree Days 32    
Moisture  
Dew Point 32 °F    
Average Humidity 99    
Maximum Humidity 100    
Minimum Humidity 93    
Precipitation  
Precipitation 0.00 in - - ()
Sea Level Pressure  
Sea Level Pressure 30.36 in    
Wind  
Wind Speed 1 mph (NNW)    
Max Wind Speed 7 mph    
Max Gust Speed -    
Visibility 4 miles    
Events Fog    
Averages and records for this station are not official NWS values.
T = Trace of Precipitation, MM = Missing Value Source: NWS Daily Summary

Daily Weather History Graph

Daily Weather History Graph

Search for Another Location

Airport:

Trip Planner

Search our weather history database for the weather conditions in past years. The results will help you decide how hot, cold, wet, or windy it might be!

Date:

Astronomy

Jan. 19, 2013 Rise Set
Actual Time 7:48 AM PST 4:54 PM PST
Civil Twilight 7:14 AM PST 5:28 PM PST
Nautical Twilight 6:37 AM PST 6:05 PM PST
Astronomical Twilight 6:01 AM PST 6:41 PM PST
Moon 11:27 AM PST (1/19) 1:22 AM PST (1/19)
Length of Visible Light 10h 13m
Length of Day
9h 05m
First Quarter, 58% of the Moon is Illuminated
Jan 19
First Quarter
Jan 26
Full
Feb 3
Last Quarter
Feb 9
New
Feb 17
First Quarter

Hourly Weather History & Observations

Time (PST) Temp. Windchill Dew Point Humidity Pressure Visibility Wind Dir Wind Speed Gust Speed Precip Events Conditions
12:00 AM 33.8 °F - 33.8 °F 100% 30.33 in 10.0 mi North 1.2 mph - N/A   Overcast
12:58 AM 34.2 °F - 34.0 °F 99% 30.32 in 10.0 mi NNW 1.2 mph - N/A   Overcast
1:58 AM 33.8 °F - 33.6 °F 99% 30.33 in 10.0 mi Calm Calm - N/A   Overcast
2:58 AM 33.1 °F 30.0 °F 32.9 °F 99% 30.33 in 10.0 mi NNW 3.5 mph - N/A   Overcast
3:58 AM 32.5 °F 28.1 °F 32.4 °F 99% 30.34 in 10.0 mi NNW 4.6 mph - N/A   Overcast
4:58 AM 31.5 °F - 31.3 °F 99% 30.34 in 10.0 mi Calm Calm - N/A   Overcast
5:58 AM 30.9 °F 24.3 °F 30.7 °F 99% 30.34 in 10.0 mi NNW 6.9 mph - N/A   Overcast
6:58 AM 30.0 °F - 29.8 °F 99% 30.34 in 10.0 mi North 1.2 mph - N/A   Overcast
7:16 AM 30.2 °F - 30.2 °F 100% 30.35 in 1.0 mi Calm Calm - N/A   Overcast
7:17 AM 30.2 °F - 30.2 °F 100% 30.35 in 1.0 mi Calm Calm - N/A   Overcast
7:19 AM 32.0 °F - 30.2 °F 93% 30.34 in 1.0 mi Calm Calm - N/A   Overcast
7:22 AM 32.0 °F - 30.2 °F 93% 30.34 in 10.0 mi Calm Calm - N/A   Overcast
7:39 AM 30.2 °F - 30.2 °F 100% 30.34 in 1.0 mi North 1.2 mph - N/A   Overcast
7:41 AM 30.2 °F - 30.2 °F 100% 30.34 in 1.0 mi Calm Calm - N/A   Overcast
7:42 AM 30.2 °F - 30.2 °F 100% 30.34 in 1.0 mi Calm Calm - N/A   Overcast
7:56 AM 32.0 °F - 32.0 °F 100% 30.35 in 0.5 mi NNW 2.3 mph - N/A   Overcast
7:59 AM 32.0 °F - 32.0 °F 100% 30.35 in 10.0 mi North 1.2 mph - N/A   Overcast
8:16 AM 32.0 °F - 32.0 °F 100% 30.35 in 0.5 mi NNW 2.3 mph - N/A   Overcast
8:20 AM 32.0 °F - 32.0 °F 100% 30.35 in 0.2 mi NNW 2.3 mph - N/A   Overcast
8:28 AM 32.0 °F - 32.0 °F 100% 30.35 in 0.5 mi NNW 2.3 mph - N/A Fog Fog
8:58 AM 30.7 °F - 30.6 °F 99% 30.38 in 10.0 mi Calm Calm - N/A   Overcast
9:04 AM 32.0 °F - 32.0 °F 100% 30.38 in 0.5 mi Calm Calm - N/A Fog Fog
9:05 AM 32.0 °F - 32.0 °F 100% 30.38 in 0.5 mi Calm Calm - N/A Fog Fog
9:11 AM 32.0 °F - 32.0 °F 100% 30.36 in 10.0 mi Calm Calm - N/A   Overcast
9:19 AM 32.0 °F - 32.0 °F 100% 30.37 in 10.0 mi Calm Calm - N/A   Light Freezing Drizzle
9:21 AM 32.0 °F - 32.0 °F 100% 30.36 in 0.2 mi Calm Calm - N/A Fog Fog
9:22 AM 32.0 °F - 32.0 °F 100% 30.37 in 10.0 mi Calm Calm - N/A   Light Freezing Drizzle
9:43 AM 32.0 °F - 32.0 °F 100% 30.37 in 0.2 mi Calm Calm - N/A Fog Fog
9:49 AM 32.0 °F - 32.0 °F 100% 30.37 in 0.5 mi Calm Calm - N/A Fog Fog
9:53 AM 32.0 °F - 32.0 °F 100% 30.37 in 0.2 mi Calm Calm - N/A Fog Fog
9:55 AM 32.0 °F - 32.0 °F 100% 30.37 in 10.0 mi Calm Calm - N/A   Light Freezing Drizzle
9:58 AM 32.2 °F - 32.0 °F 99% 30.39 in 10.0 mi Calm Calm - 0.00 in   Light Freezing Drizzle
10:00 AM 32.0 °F - 32.0 °F 100% 30.37 in 0.2 mi Calm Calm - N/A Fog Fog
10:03 AM 32.0 °F - 32.0 °F 100% 30.37 in 0.2 mi Calm Calm - N/A Fog Fog
10:08 AM 32.0 °F - 32.0 °F 100% 30.37 in 10.0 mi Calm Calm - N/A   Overcast
10:10 AM 32.0 °F - 32.0 °F 100% 30.37 in 0.2 mi Calm Calm - N/A Fog Fog
10:27 AM 32.0 °F - 32.0 °F 100% 30.37 in 0.2 mi North 1.2 mph - N/A Fog Fog
10:35 AM 32.0 °F - 32.0 °F 100% 30.37 in 10.0 mi North 1.2 mph - N/A   Overcast
10:58 AM 32.0 °F - 32.0 °F 100% 30.39 in 10.0 mi Calm Calm - N/A   Overcast
11:03 AM 32.0 °F - 32.0 °F 100% 30.37 in 0.5 mi Calm Calm - N/A Fog Fog
11:10 AM 32.0 °F - 32.0 °F 100% 30.37 in 10.0 mi North 1.2 mph - N/A   Overcast
11:17 AM 32.0 °F - 32.0 °F 100% 30.36 in 0.2 mi Calm Calm - N/A Fog Fog
11:18 AM 32.0 °F - 32.0 °F 100% 30.36 in 0.2 mi Calm Calm - N/A Fog Fog
11:26 AM 32.0 °F - 32.0 °F 100% 30.36 in 10.0 mi North 1.2 mph - N/A   Overcast
11:29 AM 32.0 °F - 32.0 °F 100% 30.36 in 0.2 mi NNW 2.3 mph - N/A Fog Fog
11:31 AM 32.0 °F - 32.0 °F 100% 30.36 in 0.2 mi North 1.2 mph - N/A Fog Fog
11:36 AM 32.0 °F - 32.0 °F 100% 30.36 in 10.0 mi NNW 2.3 mph - N/A   Overcast
11:51 AM 32.0 °F - 32.0 °F 100% 30.35 in 0.2 mi Calm Calm - N/A Fog Fog
11:52 AM 32.0 °F - 32.0 °F 100% 30.35 in 0.2 mi Calm Calm - N/A Fog Fog
11:56 AM 32.0 °F - 32.0 °F 100% 30.37 in 0.2 mi Calm Calm - N/A Fog Fog
11:57 AM 32.0 °F - 32.0 °F 100% 30.37 in 0.2 mi Calm Calm - N/A Fog Fog
12:02 PM 32.0 °F - 32.0 °F 100% 30.35 in 10.0 mi Calm Calm - N/A   Overcast
12:03 PM 32.0 °F - 32.0 °F 100% 30.34 in 0.2 mi Calm Calm - N/A Fog Fog
12:06 PM 32.0 °F - 32.0 °F 100% 30.34 in 1.0 mi Calm Calm - N/A Fog Fog
12:07 PM 32.0 °F - 32.0 °F 100% 30.35 in 1.0 mi North 1.2 mph - N/A Fog Fog
12:34 PM 32.0 °F - 32.0 °F 100% 30.33 in 1.0 mi North 1.2 mph - N/A Fog Fog
12:40 PM 32.0 °F - 32.0 °F 100% 30.33 in 1.0 mi North 1.2 mph - N/A Fog Fog
2:09 PM 33.8 °F - 33.8 °F 100% 30.35 in 2.0 mi Calm Calm - N/A   Overcast
2:55 PM 34.7 °F - 34.3 °F 99% 30.34 in 2.0 mi Calm Calm - N/A   Overcast
3:01 PM 35.6 °F - 33.8 °F 93% 30.34 in 3.0 mi Calm Calm - N/A   Overcast
3:06 PM 35.6 °F - 33.8 °F 93% 30.34 in 2.0 mi Calm Calm - N/A   Overcast
3:15 PM 33.8 °F - 33.8 °F 100% 30.34 in 2.0 mi Calm Calm - N/A   Overcast
3:31 PM 33.8 °F - 33.8 °F 100% 30.34 in 2.0 mi Calm Calm - N/A   Overcast
3:55 PM 34.5 °F - 34.2 °F 99% 30.34 in 2.0 mi Calm Calm - N/A   Overcast
4:55 PM 34.3 °F - 34.2 °F 99% 30.35 in 2.0 mi Calm Calm - N/A   Overcast
5:23 PM 35.6 °F - 33.8 °F 93% 30.35 in 1.5 mi Calm Calm - N/A   Overcast
5:55 PM 34.9 °F 29.9 °F 34.5 °F 99% 30.35 in 1.5 mi NNW 5.8 mph - N/A   Overcast
6:55 PM 34.7 °F - 34.2 °F 98% 30.36 in 1.5 mi Calm Calm - N/A   Overcast
7:55 PM 34.3 °F - 33.8 °F 98% 30.37 in 1.5 mi Calm Calm - N/A   Overcast
8:55 PM 33.8 °F - 33.3 °F 98% 30.38 in 1.5 mi Calm Calm - N/A   Overcast
9:05 PM 33.8 °F - 33.8 °F 100% 30.38 in 1.0 mi Calm Calm - N/A   Overcast
9:53 PM 32.0 °F - 32.0 °F 100% 30.38 in 0.8 mi Calm Calm - N/A   Overcast
9:55 PM 33.1 °F - 32.9 °F 99% 30.38 in 0.8 mi Calm Calm - N/A   Overcast
10:55 PM 32.0 °F - 32.0 °F 100% 30.38 in 0.5 mi North 1.2 mph - N/A Fog Light Freezing Fog
11:00 PM 32.0 °F - 32.0 °F 100% 30.37 in 10.0 mi North 1.2 mph - N/A   Overcast
11:58 PM 31.1 °F 26.4 °F 30.9 °F 99% 30.40 in 10.0 mi NNW 4.6 mph - N/A   Overcast